Regional Weather Roundup
Issued by NWS

Home | Current Version | Previous Version | Text Only | Print | Product List | Glossary Off
Versions: 1 2 3 4 5 6 7 8 9 10 11 12 13 14 15 16 17 18 19 20 21 22 23 24 25 26 27 28 29 30 31 32 33 34 35 36 37 38 39 40 41 42 43 44 45 46 47 48 49 50

000
ASUS43 KLOT 192102
RWRIL

ILLINOIS REGIONAL WEATHER ROUNDUP
NATIONAL WEATHER SERVICE CHICAGO/ROMEOVILLE IL
400 PM CDT SUN APR 19 2015

NOTE: "FAIR" INDICATES FEW OR NO CLOUDS BELOW 12,000 FEET WITH NO
SIGNIFICANT WEATHER AND/OR OBSTRUCTIONS TO VISIBILITY.

* THESE STATIONS ARE NOT UNDER NWS QUALITY CONTROL. THEY ALSO MAY NOT
  REPORT WEATHER SUCH AS PRECIPITATION OR FOG.

ILZ001-002-007-009-015-016-024-192200-
NORTHWEST ILLINOIS

CITY           SKY/WX    TMP DP  RH WIND       PRES   REMARKS
MOLINE         NOT AVBL
STERLING*      CLOUDY    59  52  77 SE6       29.54F
$$

ILZ003-004-008-010-011-017-018-192200-
NORTH CENTRAL ILLINOIS

CITY           SKY/WX    TMP DP  RH WIND       PRES   REMARKS
ROCKFORD       CLOUDY    70  42  36 E10       29.53F
$$

ILZ005-006-012>014-019>023-192200-
NORTHEAST ILLINOIS

CITY           SKY/WX    TMP DP  RH WIND       PRES   REMARKS
CHICAGO-OHARE  LGT RAIN  59  39  47 E10       29.55F
CHICAGO-MIDWAY LGT RAIN  59  48  67 E8        29.54F
AURORA         LGT RAIN  63  49  60 SE10      29.53F
WAUKEGAN       CLOUDY    54  35  48 NE9       29.57F
DUPAGE AIRPORT CLOUDY    64  41  42 NE13      29.53F
WHEELING       CLOUDY    54  35  48 NE8       29.58F
NORTHERLY ISL    N/A     51  42  71 N6          N/A
$$

LMZ740>746-192200-
SOUTHERN LAKE MICHIGAN

STATION/POSITION SKY/WX   TEMP    WIND        PRES    VSBY  WAVE
                          AIR SEA DIR/SP/G                  HT/PER
                          (F)     (DEG/KT/KT) (MB)    (MI)  (FT/S)
HARRISON CRIB              45     350/ 10/ 11   N/A
BURNHAM HARBOR             51      10/  5/ 10   N/A
CALUMET HARBOR             50     340/  8/ 10   N/A
BURNS HARBOR               61     110/ 12/ 21 1002.4F
MICHIGAN CITY              61     100/ 11/ 15   N/A
MICHIGAN CITY 6N           55 44  130/ 10/ 12   N/A           2/ 5
$$

ILZ025>027-034>036-040-047-049-050-058-095>099-192200-
WEST-CENTRAL ILLINOIS

CITY           SKY/WX    TMP DP  RH WIND       PRES   REMARKS
QUINCY         LGT RAIN  65  60  84 SW8       29.52F
$$

ILZ028>032-037-038-041>044-048-051>054-059>061-192200-
CENTRAL ILLINOIS

CITY           SKY/WX    TMP DP  RH WIND       PRES   REMARKS
DECATUR        CLOUDY    58  56  93 NE13      29.47F FOG
PEORIA         LGT RAIN  61  55  81 NE9       29.50F
SPRINGFIELD    LGT RAIN  59  57  93 N6        29.49F FOG
TAYLORVILLE    NOT AVBL
$$

ILZ033-039-045-046-055>057-062-063-192200-
EAST-CENTRAL ILLINOIS

CITY           SKY/WX    TMP DP  RH WIND       PRES   REMARKS
CHAMPAIGN      LGT RAIN  56  56 100 NE12      29.46F VSB 1
MATTOON        RAIN      60  60 100 SE5       29.44F FOG
$$

ILZ079-100>102-192200-
SOUTHWEST ILLINOIS

CITY           SKY/WX    TMP DP  RH WIND       PRES   REMARKS
BELLEVILLE     LGT RAIN  62  62 100 W6        29.50F FOG
CAHOKIA*       LGT RAIN  63  59  87 NW16      29.51F FOG
$$

ILZ064>066-069>071-074>076-080>082-084>086-088>090-092>094-192200-
SOUTH-CENTRAL ILLINOIS

CITY           SKY/WX    TMP DP  RH WIND       PRES   REMARKS
CARBONDALE     LGT RAIN  63  60  90 W10       29.50R
MARION         LGT RAIN  64  63  94 W17       29.50R
MT. VERNON     CLOUDY    61  55  82 W5        29.48F
$$

ILZ067-068-072-073-078-083-087-091-192200-
SOUTHEAST ILLINOIS

CITY           SKY/WX    TMP DP  RH WIND       PRES   REMARKS
LAWRENCEVILLE  LGT RAIN  65  64  97 S13       29.45F
$$

ABBREVIATIONS USED IN REMARKS
   TC - TEMPERATURE IN CELSIUS
  WCI - WIND CHILL INDEX
   HX - HEAT INDEX
  VSB - VISIBILITY
$$




USA.gov is the U.S. government's official web portal to all federal, state and local government web resources and services.